GW4881 Weather Reports


time (UTC)temp
C
wind
direction
speed
KPH
gust
KPH
rain 1hr
cm
rain 24hr
cm
rain mn
cm
humidity
%
barometer
mb
20260507223301 24 54 1.6 4.8 0.00 0.00 0.00 88 1013.0
20260507222802 24 302 1.6 3.2 0.00 0.00 0.00 88 1013.0
20260507222305 24 32 1.6 4.8 0.00 0.00 0.00 87 1013.0
20260507221802 24 345 0.0 1.6 0.00 0.00 0.00 87 1013.0
20260507221302 24 190 0.0 1.6 0.00 0.00 0.00 88 1013.0
20260507220802 24 56 0.0 1.6 0.00 0.00 0.00 88 1013.0
20260507220302 24 49 1.6 4.8 0.00 0.00 0.00 88 1013.0
20260507215802 24 55 1.6 3.2 0.00 0.00 0.00 88 1013.0
20260507215306 24 33 3.2 4.8 0.00 0.00 0.00 87 1013.0
20260507214802 24 255 1.6 3.2 0.00 0.00 0.00 88 1013.0
20260507214302 24 53 3.2 6.4 0.00 0.00 0.00 88 1013.0
20260507213802 24 43 4.8 11.3 0.00 0.00 0.00 88 1013.0
20260507213301 24 42 3.2 6.4 0.00 0.00 0.00 88 1013.0
20260507212801 24 59 1.6 3.2 0.00 0.00 0.00 89 1013.0
20260507212306 24 43 3.2 6.4 0.00 0.00 0.00 88 1013.0
20260507211804 24 29 3.2 6.4 0.00 0.00 0.00 89 1013.0
20260507211302 24 51 3.2 6.4 0.00 0.00 0.00 89 1013.0
20260507210331 24 25 3.2 8.0 0.00 0.00 0.00 88 1013.0
20260507205801 24 65 1.6 4.8 0.00 0.00 0.00 89 1013.0
20260507205306 24 63 3.2 6.4 0.00 0.00 0.00 89 1013.0
20260507204802 24 58 4.8 6.4 0.00 0.00 0.00 89 1013.0
20260507204304 24 314 1.6 3.2 0.00 0.00 0.00 89 1013.0
20260507203801 24 60 3.2 6.4 0.00 0.00 0.00 89 1013.0
20260507203301 24 40 1.6 4.8 0.00 0.00 0.00 89 1013.0
20260507202802 24 64 3.2 4.8 0.00 0.00 0.00 89 1013.0
20260507202306 24 31 1.6 8.0 0.00 0.00 0.00 89 1013.0
20260507201803 24 18 1.6 4.8 0.00 0.00 0.00 89 1013.0
20260507201301 24 51 4.8 9.7 0.00 0.00 0.00 89 1013.0
20260507200802 24 47 1.6 4.8 0.00 0.00 0.00 89 1013.0
20260507200304 24 37 3.2 8.0 0.00 0.00 0.00 89 1013.0
20260507195802 24 231 0.0 3.2 0.00 0.00 0.00 89 1013.0
20260507195305 24 37 1.6 6.4 0.00 0.00 0.00 89 1013.0
20260507194801 25 41 3.2 6.4 0.00 0.00 0.00 89 1013.0
20260507194301 25 39 4.8 9.7 0.00 0.00 0.00 89 1013.0
20260507193801 25 49 3.2 6.4 0.00 0.00 0.00 89 1013.0
20260507193302 25 41 3.2 8.0 0.00 0.00 0.00 88 1013.0
20260507192803 25 37 1.6 4.8 0.00 0.00 0.00 88 1013.0
20260507192305 25 60 3.2 6.4 0.00 0.00 0.00 87 1014.0
20260507191808 25 42 0.0 3.2 0.00 0.00 0.00 87 1013.0
20260507191302 25 15 1.6 6.4 0.00 0.00 0.00 87 1013.0
20260507190801 25 48 3.2 6.4 0.00 0.00 0.00 87 1013.0
20260507190305 25 54 3.2 4.8 0.00 0.00 0.00 86 1014.0
20260507185805 25 45 6.4 9.7 0.00 0.00 0.00 85 1014.0
20260507185305 25 126 1.6 4.8 0.00 0.00 0.00 84 1014.0
20260507184801 25 338 1.6 4.8 0.00 0.00 0.00 83 1014.0
20260507184302 25 63 1.6 4.8 0.00 0.00 0.00 83 1014.0
20260507183802 25 4 1.6 3.2 0.00 0.00 0.00 82 1014.0
20260507183302 26 12 3.2 6.4 0.00 0.00 0.00 81 1014.0
20260507182802 26 31 3.2 6.4 0.00 0.00 0.00 79 1014.0
20260507182306 26 248 0.0 3.2 0.00 0.00 0.00 77 1014.0
20260507181803 26 51 4.8 9.7 0.00 0.00 0.00 77 1014.0
20260507181301 26 40 1.6 3.2 0.00 0.00 0.00 75 1014.0
20260507180803 26 53 3.2 9.7 0.00 0.00 0.00 74 1014.0
20260507180304 26 52 1.6 3.2 0.00 0.00 0.00 73 1014.0
20260507175803 26 33 3.2 8.0 0.00 0.00 0.00 72 1014.0
20260507175306 26 54 4.8 8.0 0.00 0.00 0.00 71 1014.0
20260507174801 27 41 4.8 11.3 0.00 0.00 0.00 71 1013.0
20260507174305 27 144 1.6 3.2 0.00 0.00 0.00 70 1013.0
20260507173802 27 56 1.6 4.8 0.00 0.00 0.00 70 1013.0
20260507173302 27 61 1.6 3.2 0.00 0.00 0.00 70 1013.0
20260507172804 27 41 3.2 11.3 0.00 0.00 0.00 70 1013.0
20260507172307 27 52 3.2 6.4 0.00 0.00 0.00 70 1013.0
20260507171804 27 55 1.6 4.8 0.00 0.00 0.00 69 1013.0
20260507171302 27 42 1.6 6.4 0.00 0.00 0.00 69 1013.0
20260507170802 27 73 1.6 6.4 0.00 0.00 0.00 69 1013.0
20260507170304 27 50 1.6 4.8 0.00 0.00 0.00 69 1013.0
20260507165808 27 236 0.0 3.2 0.00 0.00 0.00 69 1013.0
20260507165301 27 31 0.0 3.2 0.00 0.00 0.00 69 1014.0
20260507164802 27 306 1.6 3.2 0.00 0.00 0.00 68 1014.0
20260507164304 27 218 1.6 3.2 0.00 0.00 0.00 68 1014.0
20260507163805 27 146 0.0 1.6 0.00 0.00 0.00 68 1014.0
20260507163304 28 296 0.0 3.2 0.00 0.00 0.00 68 1014.0
20260507162802 28 237 1.6 3.2 0.00 0.00 0.00 68 1014.0
20260507162310 28 231 1.6 3.2 0.00 0.00 0.00 67 1014.0
20260507161803 28 168 1.6 3.2 0.00 0.00 0.00 67 1014.0
20260507161304 28 245 1.6 4.8 0.00 0.00 0.00 66 1014.0
20260507160804 28 39 0.0 1.6 0.00 0.00 0.00 65 1014.0
20260507160302 28 264 1.6 3.2 0.00 0.00 0.00 65 1013.0
20260507155803 28 0 0.0 3.2 0.00 0.00 0.00 65 1013.0
20260507155301 28 51 1.6 3.2 0.00 0.00 0.00 64 1013.0
20260507154805 28 202 0.0 3.2 0.00 0.00 0.00 64 1013.0
20260507154304 28 66 1.6 6.4 0.00 0.00 0.00 64 1013.0
20260507153802 28 132 0.0 3.2 0.00 0.00 0.00 63 1013.0
20260507153302 28 58 3.2 6.4 0.00 0.00 0.00 63 1013.0
20260507152802 28 32 1.6 4.8 0.00 0.00 0.00 63 1013.0
20260507152305 28 55 3.2 4.8 0.00 0.00 0.00 63 1013.0
20260507151802 28 23 3.2 6.4 0.00 0.00 0.00 63 1013.0
20260507151306 28 56 3.2 6.4 0.00 0.00 0.00 63 1013.0
20260507150804 28 59 3.2 6.4 0.00 0.00 0.00 62 1012.0
20260507150303 28 63 3.2 6.4 0.00 0.00 0.00 62 1012.0
20260507145804 28 354 0.0 3.2 0.00 0.00 0.00 62 1012.0
20260507145306 28 68 4.8 8.0 0.00 0.00 0.00 62 1012.0
20260507144802 28 190 0.0 1.6 0.00 0.00 0.00 62 1012.0
20260507144302 28 268 0.0 3.2 0.00 0.00 0.00 61 1012.0
20260507143338 29 64 1.6 3.2 0.00 0.00 0.00 60 1012.0
20260507142803 29 64 3.2 4.8 0.00 0.00 0.00 59 1012.0
20260507142301 29 62 1.6 3.2 0.00 0.00 0.00 58 1012.0
20260507141802 29 51 1.6 4.8 0.00 0.00 0.00 58 1011.0
20260507141302 29 27 1.6 4.8 0.00 0.00 0.00 57 1011.0
20260507140803 29 45 1.6 3.2 0.00 0.00 0.00 57 1011.0
20260507140302 29 64 1.6 4.8 0.00 0.00 0.00 56 1011.0
20260507135803 30 47 3.2 6.4 0.00 0.00 0.00 56 1011.0
20260507135305 30 0 0.0 0.0 0.00 0.00 0.00 56 1011.0
20260507134803 30 0 0.0 0.0 0.00 0.00 0.00 55 1011.0
20260507134302 30 79 1.6 3.2 0.00 0.00 0.00 55 1011.0
20260507133802 30 78 0.0 0.0 0.00 0.00 0.00 55 1011.0
20260507133302 30 56 4.8 6.4 0.00 0.00 0.00 54 1011.0
20260507132802 30 51 3.2 6.4 0.00 0.00 0.00 54 1011.0
20260507132306 30 46 1.6 3.2 0.00 0.00 0.00 54 1011.0
20260507131802 30 154 0.0 0.0 0.00 0.00 0.00 54 1011.0
20260507131303 30 176 0.0 1.6 0.00 0.00 0.00 53 1010.0
20260507130802 30 59 1.6 4.8 0.00 0.00 0.00 53 1010.0
20260507130306 30 209 1.6 3.2 0.00 0.00 0.00 53 1010.0
20260507125804 30 35 0.0 1.6 0.00 0.00 0.00 53 1010.0
20260507125301 31 110 1.6 3.2 0.00 0.00 0.00 52 1010.0
20260507124803 31 49 1.6 4.8 0.00 0.00 0.00 52 1010.0
20260507124304 31 254 1.6 4.8 0.00 0.00 0.00 52 1010.0
20260507123802 31 31 1.6 4.8 0.00 0.00 0.00 52 1010.0
20260507123302 31 72 1.6 3.2 0.00 0.00 0.00 52 1010.0
20260507122802 31 58 1.6 3.2 0.00 0.00 0.00 52 1010.0
20260507122306 31 69 1.6 3.2 0.00 0.00 0.00 52 1010.0
20260507121806 31 192 1.6 3.2 0.00 0.00 0.00 52 1010.0
20260507121301 32 49 3.2 8.0 0.00 0.00 0.00 52 1010.0
20260507120802 32 176 1.6 3.2 0.00 0.00 0.00 52 1010.0
20260507120302 32 40 4.8 9.7 0.00 0.00 0.00 51 1010.0
20260507115802 32 143 0.0 0.0 0.00 0.00 0.00 50 1010.0
20260507115307 33 270 1.6 3.2 0.00 0.00 0.00 49 1010.0
20260507114328 33 236 3.2 6.4 0.00 0.00 0.00 48 1010.0
20260507113805 33 12 0.0 1.6 0.00 0.00 0.00 48 1010.0
20260507113303 33 37 1.6 3.2 0.00 0.00 0.00 48 1010.0
20260507112802 33 189 1.6 4.8 0.00 0.00 0.00 48 1010.0
20260507112306 33 218 0.0 1.6 0.00 0.00 0.00 49 1010.0
20260507111802 32 105 0.0 3.2 0.00 0.00 0.00 50 1010.0
20260507111303 32 56 1.6 3.2 0.00 0.00 0.00 51 1010.0
20260507110802 32 64 3.2 6.4 0.00 0.00 0.00 51 1010.0
20260507110303 33 320 3.2 3.2 0.00 0.00 0.00 49 1010.0
20260507105802 33 69 3.2 4.8 0.00 0.00 0.00 49 1010.0
20260507105307 33 85 1.6 3.2 0.00 0.00 0.00 50 1010.0
20260507104801 33 56 0.0 1.6 0.00 0.00 0.00 50 1010.0
20260507104301 33 48 3.2 6.4 0.00 0.00 0.00 51 1010.0
20260507103804 33 51 3.2 8.0 0.00 0.00 0.00 51 1010.0
20260507103301 33 153 3.2 6.4 0.00 0.00 0.00 50 1010.0
20260507102805 33 354 1.6 3.2 0.00 0.00 0.00 50 1010.0
20260507102306 32 1 1.6 4.8 0.00 0.00 0.00 51 1010.0
20260507101804 32 115 1.6 3.2 0.00 0.00 0.00 52 1010.0
20260507101302 32 355 3.2 4.8 0.00 0.00 0.00 52 1010.0
20260507100805 32 56 1.6 3.2 0.00 0.00 0.00 52 1011.0
20260507100304 32 53 1.6 4.8 0.00 0.00 0.00 53 1011.0
20260507095801 32 47 4.8 8.0 0.00 0.00 0.00 53 1011.0
20260507095306 33 56 3.2 6.4 0.00 0.00 0.00 51 1011.0
20260507094803 33 58 3.2 12.9 0.00 0.00 0.00 50 1011.0
20260507094302 32 105 1.6 3.2 0.00 0.00 0.00 51 1011.0
20260507093801 32 163 1.6 3.2 0.00 0.00 0.00 52 1011.0
20260507093302 32 66 1.6 3.2 0.00 0.00 0.00 53 1011.0
20260507092806 32 157 3.2 6.4 0.00 0.00 0.00 51 1011.0
20260507092307 32 224 1.6 4.8 0.00 0.00 0.00 52 1011.0
20260507091802 32 53 1.6 4.8 0.00 0.00 0.00 52 1011.0
20260507091302 32 21 3.2 6.4 0.00 0.00 0.00 52 1011.0
20260507090802 32 249 3.2 4.8 0.00 0.00 0.00 53 1011.0
20260507090302 32 225 1.6 3.2 0.00 0.00 0.00 51 1011.0
20260507085802 31 52 3.2 8.0 0.00 0.00 0.00 53 1011.0
20260507085305 32 111 3.2 4.8 0.00 0.00 0.00 51 1011.0
20260507084802 31 147 1.6 4.8 0.00 0.00 0.00 52 1011.0
20260507084301 31 56 6.4 9.7 0.00 0.00 0.00 52 1011.0
20260507083802 31 30 3.2 6.4 0.00 0.00 0.00 53 1011.0
20260507083302 31 77 1.6 4.8 0.00 0.00 0.00 54 1011.0
20260507082801 31 61 3.2 8.0 0.00 0.00 0.00 53 1011.0
20260507082306 31 253 3.2 4.8 0.00 0.00 0.00 53 1011.0
20260507081804 31 146 3.2 4.8 0.00 0.00 0.00 54 1012.0
20260507081302 31 27 3.2 4.8 0.00 0.00 0.00 54 1012.0
20260507080801 31 35 4.8 8.0 0.00 0.00 0.00 54 1012.0
20260507080302 31 248 1.6 3.2 0.00 0.00 0.00 54 1012.0
20260507075801 31 27 3.2 6.4 0.00 0.00 0.00 56 1012.0
20260507075306 32 337 3.2 4.8 0.00 0.00 0.00 53 1012.0
20260507074804 32 98 3.2 4.8 0.00 0.00 0.00 53 1012.0
20260507074302 31 344 1.6 4.8 0.00 0.00 0.00 53 1012.0
20260507073801 31 17 1.6 3.2 0.00 0.00 0.00 54 1012.0
20260507073306 31 163 1.6 3.2 0.00 0.00 0.00 55 1012.0
20260507072804 31 203 3.2 8.0 0.00 0.00 0.00 55 1012.0
20260507072306 30 44 1.6 3.2 0.00 0.00 0.00 56 1012.0
20260507071801 30 90 1.6 3.2 0.00 0.00 0.00 57 1013.0
20260507071303 30 293 0.0 3.2 0.00 0.00 0.00 58 1013.0
20260507070801 30 345 3.2 4.8 0.00 0.00 0.00 58 1013.0
20260507070301 30 101 0.0 3.2 0.00 0.00 0.00 58 1013.0
20260507065802 30 46 3.2 6.4 0.00 0.00 0.00 57 1013.0
20260507065305 31 40 4.8 8.0 0.00 0.00 0.00 57 1013.0
20260507064802 31 236 1.6 4.8 0.00 0.00 0.00 58 1013.0
20260507064304 31 186 3.2 6.4 0.00 0.00 0.00 57 1013.0
20260507063804 31 172 3.2 4.8 0.00 0.00 0.00 55 1013.0
20260507063301 31 84 1.6 3.2 0.00 0.00 0.00 56 1013.0
20260507062802 30 79 3.2 6.4 0.00 0.00 0.00 57 1013.0
20260507062306 30 295 0.0 3.2 0.00 0.00 0.00 59 1013.0
20260507061804 29 225 1.6 3.2 0.00 0.00 0.00 60 1013.0
20260507061302 29 163 3.2 6.4 0.00 0.00 0.00 62 1014.0
20260507060801 29 166 3.2 6.4 0.00 0.00 0.00 62 1014.0
20260507060302 28 139 1.6 4.8 0.00 0.00 0.00 62 1014.0
20260507055801 28 175 3.2 6.4 0.00 0.00 0.00 63 1014.0
20260507055305 29 209 4.8 8.0 0.00 0.00 0.00 61 1014.0
20260507054804 29 20 1.6 3.2 0.00 0.00 0.00 62 1014.0
20260507054302 29 103 3.2 4.8 0.00 0.00 0.00 62 1014.0
20260507053802 29 10 3.2 4.8 0.00 0.00 0.00 61 1014.0
20260507053303 29 29 3.2 3.2 0.00 0.00 0.00 62 1014.0
20260507052805 29 196 4.8 8.0 0.00 0.00 0.00 61 1014.0
20260507052306 28 0 0.0 0.0 0.00 0.00 0.00 65 1014.0
20260507051802 28 146 3.2 4.8 0.00 0.00 0.00 64 1014.0
20260507051306 27 57 3.2 4.8 0.00 0.00 0.00 66 1014.0
20260507050803 28 186 3.2 6.4 0.00 0.00 0.00 67 1014.0
20260507050302 28 211 3.2 4.8 0.00 0.00 0.00 67 1014.0
20260507045806 28 140 1.6 4.8 0.00 0.00 0.00 68 1014.0
20260507045306 28 220 4.8 9.7 0.00 0.00 0.00 68 1014.0
20260507044802 28 179 3.2 6.4 0.00 0.00 0.00 67 1014.0
20260507044302 28 141 4.8 9.7 0.00 0.00 0.00 65 1014.0
20260507043802 28 179 3.2 4.8 0.00 0.00 0.00 66 1014.0
20260507043301 28 48 3.2 4.8 0.00 0.00 0.00 66 1014.0
20260507042803 27 50 1.6 4.8 0.00 0.00 0.00 68 1014.0
20260507042301 27 213 3.2 4.8 0.00 0.00 0.00 70 1014.0
20260507041802 27 192 3.2 4.8 0.00 0.00 0.00 72 1014.0
20260507041304 27 233 1.6 3.2 0.00 0.00 0.00 72 1014.0
20260507040802 27 271 1.6 4.8 0.00 0.00 0.00 72 1014.0
20260507040302 26 167 3.2 6.4 0.00 0.00 0.00 73 1015.0
20260507035803 26 203 1.6 3.2 0.00 0.00 0.00 73 1015.0
20260507035306 26 98 0.0 3.2 0.00 0.00 0.00 74 1014.0
20260507034802 26 193 1.6 4.8 0.00 0.00 0.00 76 1015.0
20260507034304 26 192 1.6 6.4 0.00 0.00 0.00 77 1015.0
20260507033802 26 214 1.6 6.4 0.00 0.00 0.00 78 1014.0
20260507033302 26 175 3.2 4.8 0.00 0.00 0.00 77 1014.0
20260507032802 26 192 1.6 3.2 0.00 0.00 0.00 76 1014.0
20260507032305 26 188 3.2 4.8 0.00 0.00 0.00 77 1014.0
20260507031803 26 224 1.6 4.8 0.00 0.00 0.00 77 1014.0
20260507031303 26 148 0.0 1.6 0.00 0.00 0.00 78 1014.0
20260507030804 26 170 1.6 4.8 0.00 0.00 0.00 77 1014.0
20260507030306 26 309 1.6 3.2 0.00 0.00 0.00 79 1014.0
20260507025802 26 157 3.2 4.8 0.00 0.00 0.00 78 1014.0
20260507025302 26 285 1.6 4.8 0.00 0.00 0.00 79 1014.0
20260507024802 25 49 1.6 4.8 0.00 0.00 0.00 79 1014.0
20260507024303 25 187 1.6 3.2 0.00 0.00 0.00 81 1014.0
20260507023802 25 330 1.6 3.2 0.00 0.00 0.00 81 1014.0
20260507023304 25 202 3.2 4.8 0.00 0.00 0.00 82 1014.0
20260507022801 25 346 1.6 3.2 0.00 0.00 0.00 82 1014.0
20260507022301 24 276 1.6 3.2 0.00 0.00 0.00 83 1014.0
20260507021803 24 196 1.6 3.2 0.00 0.00 0.00 84 1014.0
20260507021304 23 197 1.6 4.8 0.00 0.00 0.00 85 1014.0
20260507020802 23 226 1.6 3.2 0.00 0.00 0.00 86 1014.0
20260507020303 23 195 1.6 4.8 0.00 0.00 0.00 87 1014.0
20260507015803 23 227 0.0 3.2 0.00 0.00 0.00 88 1014.0
20260507015306 23 346 0.0 1.6 0.00 0.00 0.00 88 1014.0
20260507014802 23 197 3.2 4.8 0.00 0.00 0.00 88 1014.0
20260507014301 23 321 1.6 3.2 0.00 0.00 0.00 88 1014.0
20260507013802 23 176 3.2 6.4 0.00 0.00 0.00 88 1013.0
20260507013302 23 210 0.0 3.2 0.00 0.00 0.00 89 1013.0
20260507012802 23 355 0.0 3.2 0.00 0.00 0.00 89 1013.0
20260507012305 23 198 0.0 1.6 0.00 0.00 0.00 90 1013.0
20260507011805 22 271 0.0 3.2 0.00 0.00 0.00 91 1013.0
20260507011304 22 237 0.0 3.2 0.00 0.00 0.00 91 1013.0
20260507010802 22 12 0.0 3.2 0.00 0.00 0.00 91 1013.0
20260507010301 22 317 0.0 1.6 0.00 0.00 0.00 91 1013.0
20260507005802 22 244 0.0 1.6 0.00 0.00 0.00 91 1013.0
20260507005305 22 0 0.0 0.0 0.00 0.00 0.00 91 1013.0
20260507004802 22 41 3.2 6.4 0.00 0.00 0.00 90 1013.0
20260507004304 22 2 0.0 1.6 0.00 0.00 0.00 90 1013.0
20260507003803 22 253 1.6 4.8 0.00 0.00 0.00 90 1013.0
20260507003303 23 261 1.6 4.8 0.00 0.00 0.00 90 1013.0
20260507002803 23 6 0.0 3.2 0.00 0.00 0.00 90 1013.0
20260507002305 23 261 0.0 1.6 0.00 0.00 0.00 89 1013.0
20260507001803 23 290 0.0 1.6 0.00 0.00 0.00 89 1013.0
20260507001302 23 315 1.6 3.2 0.00 0.00 0.00 89 1013.0
20260507000804 23 233 1.6 4.8 0.00 0.00 0.00 90 1013.0
20260507000303 23 276 1.6 3.2 0.00 0.00 0.00 90 1013.0
20260506235802 23 280 1.6 3.2 0.00 0.00 0.00 90 1012.0
20260506235302 23 294 1.6 3.2 0.00 0.00 0.00 90 1013.0
20260506234805 23 319 1.6 3.2 0.00 0.00 0.00 90 1012.0
20260506234303 23 189 1.6 4.8 0.00 0.00 0.00 90 1012.0
20260506233327 23 282 1.6 4.8 0.00 0.00 0.00 90 1012.0
20260506232802 23 31 3.2 4.8 0.00 0.00 0.00 90 1012.0
20260506232306 23 40 1.6 3.2 0.00 0.00 0.00 90 1012.0
20260506231802 23 2 1.6 4.8 0.00 0.00 0.00 90 1012.0
20260506231302 23 260 3.2 3.2 0.00 0.00 0.00 90 1012.0
20260506230803 23 137 1.6 4.8 0.00 0.00 0.00 90 1012.0
20260506230303 23 318 1.6 3.2 0.00 0.00 0.00 89 1012.0
20260506225804 23 354 0.0 1.6 0.00 0.00 0.00 89 1012.0
20260506225305 23 92 3.2 6.4 0.00 0.00 0.00 89 1012.0
20260506224801 23 39 0.0 1.6 0.00 0.00 0.00 89 1012.0
20260506224304 23 309 0.0 3.2 0.00 0.00 0.00 89 1012.0
20260506223803 23 293 1.6 3.2 0.00 0.00 0.00 89 1011.0